Location: Balsareny
(41.8670°N, 1.8830°E)
Time: 23:53:27
(UTC+02:00)

Envisat - Pass Details

Date: 16 August 2024
Orbit: 762 x 764 km, 98.3° (Epoch: 08 September)

Event Time Altitude Azimuth Distance (km) Brightness Sun altitude
Rises 05:02:26 0° 14° (NNE) 3,235 7.1 -20.0°
Reaches altitude 10° 05:04:45 10° 15° (NNE) 2,304 6.3 -19.7°
Maximum altitude 05:09:50 81° 103° (ESE) 776 3.0 -19.0°
Enters shadow 05:12:52 25° 189° (S) 1,510 4.1 -18.5°
